Year,Month,Day,Hour,Minute,Value (Times are PST for temperature in C)
2022,03,24,00,00,5.50
2022,03,24,00,01,5.50
2022,03,24,00,02,5.50
2022,03,24,00,03,5.40
2022,03,24,00,04,5.30
2022,03,24,00,05,5.30
2022,03,24,00,06,5.30
2022,03,24,00,07,5.30
2022,03,24,00,08,5.20
2022,03,24,00,09,5.20
2022,03,24,00,10,5.10
2022,03,24,00,11,5.10
2022,03,24,00,12,5.10
2022,03,24,00,13,5.10
2022,03,24,00,14,5.10
2022,03,24,00,15,5.10
2022,03,24,00,16,5.00
2022,03,24,00,17,4.90
2022,03,24,00,18,4.90
2022,03,24,00,19,4.90
2022,03,24,00,20,4.90
2022,03,24,00,21,4.90
2022,03,24,00,22,4.90
2022,03,24,00,23,4.80
2022,03,24,00,24,4.80
2022,03,24,00,25,4.80
2022,03,24,00,26,4.80
2022,03,24,00,27,4.70
2022,03,24,00,28,4.70
2022,03,24,00,29,4.70
2022,03,24,00,30,4.60
2022,03,24,00,31,4.60
2022,03,24,00,32,4.60
2022,03,24,00,33,4.60
2022,03,24,00,34,4.60
2022,03,24,00,35,4.60
2022,03,24,00,36,4.60
2022,03,24,00,37,4.70
2022,03,24,00,38,4.70
2022,03,24,00,39,4.70
2022,03,24,00,40,4.70
2022,03,24,00,41,4.70
2022,03,24,00,42,4.70
2022,03,24,00,43,4.70
2022,03,24,00,44,4.80
2022,03,24,00,45,4.80
2022,03,24,00,46,4.80
2022,03,24,00,47,4.80
2022,03,24,00,48,4.80
2022,03,24,00,49,4.90
2022,03,24,00,50,4.90
2022,03,24,00,51,4.90
2022,03,24,00,52,4.90
2022,03,24,00,53,4.90
2022,03,24,00,54,4.90
2022,03,24,00,55,4.90
2022,03,24,00,56,5.00
2022,03,24,00,57,5.10
2022,03,24,00,58,5.10
2022,03,24,00,59,5.10
2022,03,24,01,00,5.10
2022,03,24,01,01,5.10
2022,03,24,01,02,5.10
2022,03,24,01,03,5.00
2022,03,24,01,04,4.90
2022,03,24,01,05,4.90
2022,03,24,01,06,4.90
2022,03,24,01,07,4.90
2022,03,24,01,08,4.90
2022,03,24,01,09,4.90
2022,03,24,01,10,4.90
2022,03,24,01,11,4.90
2022,03,24,01,12,4.80
2022,03,24,01,13,4.80
2022,03,24,01,14,4.80
2022,03,24,01,15,4.80
2022,03,24,01,16,4.80
2022,03,24,01,17,4.70
2022,03,24,01,18,4.70
2022,03,24,01,19,4.70
2022,03,24,01,20,4.70
2022,03,24,01,21,4.70
2022,03,24,01,22,4.60
2022,03,24,01,23,4.60
2022,03,24,01,24,4.60
2022,03,24,01,25,4.60
2022,03,24,01,26,4.60
2022,03,24,01,27,4.60
2022,03,24,01,28,4.50
2022,03,24,01,29,4.50
2022,03,24,01,30,4.40
2022,03,24,01,31,4.40
2022,03,24,01,32,4.30
2022,03,24,01,33,4.30
2022,03,24,01,34,4.20
2022,03,24,01,35,4.20
2022,03,24,01,36,4.20
2022,03,24,01,37,4.20
2022,03,24,01,38,4.10
2022,03,24,01,39,4.10
2022,03,24,01,40,4.00
2022,03,24,01,41,4.00
2022,03,24,01,42,4.00
2022,03,24,01,43,3.90
2022,03,24,01,44,3.90
2022,03,24,01,45,3.80
2022,03,24,01,46,3.80
2022,03,24,01,47,3.80
2022,03,24,01,48,3.80
2022,03,24,01,49,3.80
2022,03,24,01,50,3.80
2022,03,24,01,51,3.70
2022,03,24,01,52,3.70
2022,03,24,01,53,3.70
2022,03,24,01,54,3.60
2022,03,24,01,55,3.60
2022,03,24,01,56,3.60
2022,03,24,01,57,3.50
2022,03,24,01,58,3.50
2022,03,24,01,59,3.50
2022,03,24,02,00,3.40
2022,03,24,02,01,3.40
2022,03,24,02,02,3.40
2022,03,24,02,03,3.30
2022,03,24,02,04,3.30
2022,03,24,02,05,3.30
2022,03,24,02,06,3.30
2022,03,24,02,07,3.30
2022,03,24,02,08,3.30
2022,03,24,02,09,3.30
2022,03,24,02,10,3.30
2022,03,24,02,11,3.30
2022,03,24,02,12,3.30
2022,03,24,02,13,3.30
2022,03,24,02,14,3.30
2022,03,24,02,15,3.30
2022,03,24,02,16,3.30
2022,03,24,02,17,3.20
2022,03,24,02,18,3.20
2022,03,24,02,19,3.20
2022,03,24,02,20,3.10
2022,03,24,02,21,3.10
2022,03,24,02,22,3.10
2022,03,24,02,23,3.10
2022,03,24,02,24,3.10
2022,03,24,02,25,3.00
2022,03,24,02,26,2.90
2022,03,24,02,27,2.90
2022,03,24,02,28,2.90
2022,03,24,02,29,2.90
2022,03,24,02,30,2.80
2022,03,24,02,31,2.80
2022,03,24,02,32,2.80
2022,03,24,02,33,2.70
2022,03,24,02,34,2.70
2022,03,24,02,35,2.70
2022,03,24,02,36,2.70
2022,03,24,02,37,2.70
2022,03,24,02,38,2.70
2022,03,24,02,39,2.70
2022,03,24,02,40,2.60
2022,03,24,02,41,2.60
2022,03,24,02,42,2.60
2022,03,24,02,43,2.60
2022,03,24,02,44,2.50
2022,03,24,02,45,2.50
2022,03,24,02,46,2.50
2022,03,24,02,47,2.50
2022,03,24,02,48,2.50
2022,03,24,02,49,2.40
2022,03,24,02,50,2.40
2022,03,24,02,51,2.40
2022,03,24,02,52,2.40
2022,03,24,02,53,2.40
2022,03,24,02,54,2.30
2022,03,24,02,55,2.30
2022,03,24,02,56,2.30
2022,03,24,02,57,2.30
2022,03,24,02,58,2.20
2022,03,24,02,59,2.20
2022,03,24,03,00,2.20
2022,03,24,03,01,2.20
2022,03,24,03,02,2.20
2022,03,24,03,03,2.20
2022,03,24,03,04,2.20
2022,03,24,03,05,2.20
2022,03,24,03,06,2.20
2022,03,24,03,07,2.20
2022,03,24,03,08,2.20
2022,03,24,03,09,2.20
2022,03,24,03,10,2.20
2022,03,24,03,11,2.20
2022,03,24,03,12,2.20
2022,03,24,03,13,2.20
2022,03,24,03,14,2.10
2022,03,24,03,15,2.10
2022,03,24,03,16,2.10
2022,03,24,03,17,2.10
2022,03,24,03,18,2.10
2022,03,24,03,19,2.10
2022,03,24,03,20,2.10
2022,03,24,03,21,2.00
2022,03,24,03,22,2.00
2022,03,24,03,23,2.00
2022,03,24,03,24,2.00
2022,03,24,03,25,2.00
2022,03,24,03,26,2.00
2022,03,24,03,27,2.00
2022,03,24,03,28,2.00
2022,03,24,03,29,2.00
2022,03,24,03,30,2.00
2022,03,24,03,31,2.00
2022,03,24,03,32,1.90
2022,03,24,03,33,1.90
2022,03,24,03,34,1.90
2022,03,24,03,35,1.90
2022,03,24,03,36,1.90
2022,03,24,03,37,1.90
2022,03,24,03,38,1.90
2022,03,24,03,39,1.90
2022,03,24,03,40,1.90
2022,03,24,03,41,1.90
2022,03,24,03,42,1.90
2022,03,24,03,43,2.00
2022,03,24,03,44,2.00
2022,03,24,03,45,2.00
2022,03,24,03,46,2.00
2022,03,24,03,47,2.00
2022,03,24,03,48,2.00
2022,03,24,03,49,1.90
2022,03,24,03,50,1.90
2022,03,24,03,51,1.90
2022,03,24,03,52,1.90
2022,03,24,03,53,1.90
2022,03,24,03,54,1.90
2022,03,24,03,55,1.90
2022,03,24,03,56,1.90
2022,03,24,03,57,1.90
2022,03,24,03,58,1.90
2022,03,24,03,59,1.90
2022,03,24,04,00,1.90
2022,03,24,04,01,1.90
2022,03,24,04,02,1.90
2022,03,24,04,03,1.90
2022,03,24,04,04,1.90
2022,03,24,04,05,1.90
2022,03,24,04,06,1.80
2022,03,24,04,07,1.80
2022,03,24,04,08,1.80
2022,03,24,04,09,1.80
2022,03,24,04,10,1.80
2022,03,24,04,11,1.80
2022,03,24,04,12,1.80
2022,03,24,04,13,1.80
2022,03,24,04,14,1.80
2022,03,24,04,15,1.70
2022,03,24,04,16,1.70
2022,03,24,04,17,1.70
2022,03,24,04,18,1.60
2022,03,24,04,19,1.60
2022,03,24,04,20,1.60
2022,03,24,04,21,1.60
2022,03,24,04,22,1.50
2022,03,24,04,23,1.50
2022,03,24,04,24,1.50
2022,03,24,04,25,1.50
2022,03,24,04,26,1.40
2022,03,24,04,27,1.40
2022,03,24,04,28,1.40
2022,03,24,04,29,1.30
2022,03,24,04,30,1.30
2022,03,24,04,31,1.30
2022,03,24,04,32,1.30
2022,03,24,04,33,1.30
2022,03,24,04,34,1.30
2022,03,24,04,35,1.30
2022,03,24,04,36,1.30
2022,03,24,04,37,1.30
2022,03,24,04,38,1.30
2022,03,24,04,39,1.40
2022,03,24,04,40,1.40
2022,03,24,04,41,1.40
2022,03,24,04,42,1.40
2022,03,24,04,43,1.40
2022,03,24,04,44,1.40
2022,03,24,04,45,1.50
2022,03,24,04,46,1.50
2022,03,24,04,47,1.50
2022,03,24,04,48,1.50
2022,03,24,04,49,1.50
2022,03,24,04,50,1.50
2022,03,24,04,51,1.50
2022,03,24,04,52,1.50
2022,03,24,04,53,1.50
2022,03,24,04,54,1.50
2022,03,24,04,55,1.50
2022,03,24,04,56,1.40
2022,03,24,04,57,1.40
2022,03,24,04,58,1.40
2022,03,24,04,59,1.30
2022,03,24,05,00,1.30
2022,03,24,05,01,1.30
2022,03,24,05,02,1.30
2022,03,24,05,03,1.30
2022,03,24,05,04,1.30
2022,03,24,05,05,1.20
2022,03,24,05,06,1.20
2022,03,24,05,07,1.20
2022,03,24,05,08,1.20
2022,03,24,05,09,1.20
2022,03,24,05,10,1.20
2022,03,24,05,11,1.20
2022,03,24,05,12,1.20
2022,03,24,05,13,1.20
2022,03,24,05,14,1.20
2022,03,24,05,15,1.10
2022,03,24,05,16,1.10
2022,03,24,05,17,1.10
2022,03,24,05,18,1.10
2022,03,24,05,19,1.10
2022,03,24,05,20,1.10
2022,03,24,05,21,1.20
2022,03,24,05,22,1.20
2022,03,24,05,23,1.20
2022,03,24,05,24,1.30
2022,03,24,05,25,1.30
2022,03,24,05,26,1.30
2022,03,24,05,27,1.30
2022,03,24,05,28,1.30
2022,03,24,05,29,1.20
2022,03,24,05,30,1.20
2022,03,24,05,31,1.20
2022,03,24,05,32,1.30
2022,03,24,05,33,1.30
2022,03,24,05,34,1.30
2022,03,24,05,35,1.30
2022,03,24,05,36,1.30
2022,03,24,05,37,1.30
2022,03,24,05,38,1.30
2022,03,24,05,39,1.30
2022,03,24,05,40,1.30
2022,03,24,05,41,1.30
2022,03,24,05,42,1.30
2022,03,24,05,43,1.30
2022,03,24,05,44,1.20
2022,03,24,05,45,1.20
2022,03,24,05,46,1.10
2022,03,24,05,47,1.10
2022,03,24,05,48,1.00
2022,03,24,05,49,1.00
2022,03,24,05,50,1.00
2022,03,24,05,51,0.90
2022,03,24,05,52,0.90
2022,03,24,05,53,0.80
2022,03,24,05,54,0.80
2022,03,24,05,55,0.80
2022,03,24,05,56,0.80
2022,03,24,05,57,0.80
2022,03,24,05,58,0.70
2022,03,24,05,59,0.70
2022,03,24,06,00,0.70
2022,03,24,06,01,0.70
2022,03,24,06,02,0.60
2022,03,24,06,03,0.60
2022,03,24,06,04,0.60
2022,03,24,06,05,0.60
2022,03,24,06,06,0.60
2022,03,24,06,07,0.60
2022,03,24,06,08,0.60
2022,03,24,06,09,0.60
2022,03,24,06,10,0.60
2022,03,24,06,11,0.60
2022,03,24,06,12,0.60
2022,03,24,06,13,0.60
2022,03,24,06,14,0.60
2022,03,24,06,15,0.60
2022,03,24,06,16,0.60
2022,03,24,06,17,0.60
2022,03,24,06,18,0.60
2022,03,24,06,19,0.60
2022,03,24,06,20,0.50
2022,03,24,06,21,0.50
2022,03,24,06,22,0.50
2022,03,24,06,23,0.50
2022,03,24,06,24,0.50
2022,03,24,06,25,0.50
2022,03,24,06,26,0.50
2022,03,24,06,27,0.50
2022,03,24,06,28,0.50
2022,03,24,06,29,0.50
2022,03,24,06,30,0.50
2022,03,24,06,31,0.50
2022,03,24,06,32,0.50
2022,03,24,06,33,0.40
2022,03,24,06,34,0.40
2022,03,24,06,35,0.40
2022,03,24,06,36,0.40
2022,03,24,06,37,0.40
2022,03,24,06,38,0.40
2022,03,24,06,39,0.40
2022,03,24,06,40,0.40
2022,03,24,06,41,0.40
2022,03,24,06,42,0.40
2022,03,24,06,43,0.40
2022,03,24,06,44,0.50
2022,03,24,06,45,0.50
2022,03,24,06,46,0.50
2022,03,24,06,47,0.50
2022,03,24,06,48,0.60
2022,03,24,06,49,0.60
2022,03,24,06,50,0.60
2022,03,24,06,51,0.60
2022,03,24,06,52,0.60
2022,03,24,06,53,0.60
2022,03,24,06,54,0.60
2022,03,24,06,55,0.60
2022,03,24,06,56,0.50
2022,03,24,06,57,0.50
2022,03,24,06,58,0.50
2022,03,24,06,59,0.50
2022,03,24,07,00,0.50
2022,03,24,07,01,0.50
2022,03,24,07,02,0.50
2022,03,24,07,03,0.50
2022,03,24,07,04,0.50
2022,03,24,07,05,0.50
2022,03,24,07,06,0.50
2022,03,24,07,07,0.50
2022,03,24,07,08,0.60
2022,03,24,07,09,0.60
2022,03,24,07,10,0.60
2022,03,24,07,11,0.70
2022,03,24,07,12,0.70
2022,03,24,07,13,0.70
2022,03,24,07,14,0.80
2022,03,24,07,15,0.80
2022,03,24,07,16,0.80
2022,03,24,07,17,0.80
2022,03,24,07,18,0.80
2022,03,24,07,19,0.80
2022,03,24,07,20,0.80
2022,03,24,07,21,0.90
2022,03,24,07,22,0.90
2022,03,24,07,23,0.90
2022,03,24,07,24,1.00
2022,03,24,07,25,1.00
2022,03,24,07,26,1.00
2022,03,24,07,27,1.00
2022,03,24,07,28,1.00
2022,03,24,07,29,1.00
2022,03,24,07,30,1.00
2022,03,24,07,31,0.90
2022,03,24,07,32,0.90
2022,03,24,07,33,0.90
2022,03,24,07,34,0.90
2022,03,24,07,35,0.90
2022,03,24,07,36,0.90
2022,03,24,07,37,0.90
2022,03,24,07,38,0.90
2022,03,24,07,39,0.90
2022,03,24,07,40,0.90
2022,03,24,07,41,0.90
2022,03,24,07,42,0.90
2022,03,24,07,43,0.90
2022,03,24,07,44,1.00
2022,03,24,07,45,1.00
2022,03,24,07,46,1.00
2022,03,24,07,47,1.00
2022,03,24,07,48,1.00
2022,03,24,07,49,1.00
2022,03,24,07,50,1.10
2022,03,24,07,51,1.10
2022,03,24,07,52,1.10
2022,03,24,07,53,1.20
2022,03,24,07,54,1.20
2022,03,24,07,55,1.30
2022,03,24,07,56,1.30
2022,03,24,07,57,1.30
2022,03,24,07,58,1.30
2022,03,24,07,59,1.40
2022,03,24,08,00,1.40
2022,03,24,08,01,1.40
2022,03,24,08,02,1.50
2022,03,24,08,03,1.50
2022,03,24,08,04,1.60
2022,03,24,08,05,1.60
2022,03,24,08,06,1.70
2022,03,24,08,07,1.70
2022,03,24,08,08,1.80
2022,03,24,08,09,1.80
2022,03,24,08,10,1.90
2022,03,24,08,11,2.00
2022,03,24,08,12,2.10
2022,03,24,08,13,2.20
2022,03,24,08,14,2.20
2022,03,24,08,15,2.30
2022,03,24,08,16,2.30
2022,03,24,08,17,2.40
2022,03,24,08,18,2.40
2022,03,24,08,19,2.50
2022,03,24,08,20,2.60
2022,03,24,08,21,2.70
2022,03,24,08,22,2.70
2022,03,24,08,23,2.80
2022,03,24,08,24,2.80
2022,03,24,08,25,2.90
2022,03,24,08,26,2.90
2022,03,24,08,27,3.00
2022,03,24,08,28,3.10
2022,03,24,08,29,3.10
2022,03,24,08,30,3.10
2022,03,24,08,31,3.10
2022,03,24,08,32,3.10
2022,03,24,08,33,3.10
2022,03,24,08,34,3.10
2022,03,24,08,35,3.20
2022,03,24,08,36,3.20
2022,03,24,08,37,3.30
2022,03,24,08,38,3.30
2022,03,24,08,39,3.30
2022,03,24,08,40,3.40
2022,03,24,08,41,3.40
2022,03,24,08,42,3.50
2022,03,24,08,43,3.60
2022,03,24,08,44,3.60
2022,03,24,08,45,3.70
2022,03,24,08,46,3.80
2022,03,24,08,47,3.80
2022,03,24,08,48,3.90
2022,03,24,08,49,4.00
2022,03,24,08,50,4.00
2022,03,24,08,51,4.10
2022,03,24,08,52,4.20
2022,03,24,08,53,4.30
2022,03,24,08,54,4.40
2022,03,24,08,55,4.50
2022,03,24,08,56,4.60
2022,03,24,08,57,4.60
2022,03,24,08,58,4.70
2022,03,24,08,59,4.80
2022,03,24,09,00,4.90
2022,03,24,09,01,4.90
2022,03,24,09,02,5.00
2022,03,24,09,03,5.10
2022,03,24,09,04,5.10
2022,03,24,09,05,5.20
2022,03,24,09,06,5.20
2022,03,24,09,07,5.30
2022,03,24,09,08,5.30
2022,03,24,09,09,5.40
2022,03,24,09,10,5.50
2022,03,24,09,11,5.50
2022,03,24,09,12,5.50
2022,03,24,09,13,5.60
2022,03,24,09,14,5.60
2022,03,24,09,15,5.70
2022,03,24,09,16,5.70
2022,03,24,09,17,5.70
2022,03,24,09,18,5.70
2022,03,24,09,19,5.80
2022,03,24,09,20,5.80
2022,03,24,09,21,5.90
2022,03,24,09,22,5.90
2022,03,24,09,23,6.00
2022,03,24,09,24,6.00
2022,03,24,09,25,6.00
2022,03,24,09,26,6.10
2022,03,24,09,27,6.10
2022,03,24,09,28,6.10
2022,03,24,09,29,6.10
2022,03,24,09,30,6.10
2022,03,24,09,31,6.20
2022,03,24,09,32,6.20
2022,03,24,09,33,6.20
2022,03,24,09,34,6.20
2022,03,24,09,35,6.20
2022,03,24,09,36,6.20
2022,03,24,09,37,6.20
2022,03,24,09,38,6.20
2022,03,24,09,39,6.20
2022,03,24,09,40,6.30
2022,03,24,09,41,6.30
2022,03,24,09,42,6.30
2022,03,24,09,43,6.30
2022,03,24,09,44,6.30
2022,03,24,09,45,6.30
2022,03,24,09,46,6.30
2022,03,24,09,47,6.40
2022,03,24,09,48,6.40
2022,03,24,09,49,6.40
2022,03,24,09,50,6.40
2022,03,24,09,51,6.40
2022,03,24,09,52,6.40
2022,03,24,09,53,6.40
2022,03,24,09,54,6.50
2022,03,24,09,55,6.60
2022,03,24,09,56,6.60
2022,03,24,09,57,6.60
2022,03,24,09,58,6.60
2022,03,24,09,59,6.60
2022,03,24,10,00,6.60
2022,03,24,10,01,6.70
2022,03,24,10,02,6.70
2022,03,24,10,03,6.70
2022,03,24,10,04,6.80
2022,03,24,10,05,6.80
2022,03,24,10,06,6.80
2022,03,24,10,07,6.80
2022,03,24,10,08,6.80
2022,03,24,10,09,6.80
2022,03,24,10,10,6.80
2022,03,24,10,11,6.80
2022,03,24,10,12,6.90
2022,03,24,10,13,6.90
2022,03,24,10,14,6.90
2022,03,24,10,15,6.90
2022,03,24,10,16,7.00
2022,03,24,10,17,7.00
2022,03,24,10,18,7.00
2022,03,24,10,19,7.10
2022,03,24,10,20,7.10
2022,03,24,10,21,7.10
2022,03,24,10,22,7.10
2022,03,24,10,23,7.20
2022,03,24,10,24,7.20
2022,03,24,10,25,7.20
2022,03,24,10,26,7.20
2022,03,24,10,27,7.30
2022,03,24,10,28,7.30
2022,03,24,10,29,7.30
2022,03,24,10,30,7.30
2022,03,24,10,31,7.30
2022,03,24,10,32,7.40
2022,03,24,10,33,7.40
2022,03,24,10,34,7.50
2022,03,24,10,35,7.50
2022,03,24,10,36,7.50
2022,03,24,10,37,7.50
2022,03,24,10,38,7.60
2022,03,24,10,39,7.60
2022,03,24,10,40,7.60
2022,03,24,10,41,7.70
2022,03,24,10,42,7.70
2022,03,24,10,43,7.70
2022,03,24,10,44,7.70
2022,03,24,10,45,7.80
2022,03,24,10,46,7.80
2022,03,24,10,47,7.80
2022,03,24,10,48,7.80
2022,03,24,10,49,7.80
2022,03,24,10,50,7.80
2022,03,24,10,51,7.80
2022,03,24,10,52,7.80
2022,03,24,10,53,7.90
2022,03,24,10,54,7.90
2022,03,24,10,55,7.90
2022,03,24,10,56,7.90
2022,03,24,10,57,8.00
2022,03,24,10,58,8.00
2022,03,24,10,59,8.00
2022,03,24,11,00,8.00
2022,03,24,11,01,8.00
2022,03,24,11,02,8.00
2022,03,24,11,03,8.00
2022,03,24,11,04,8.10
2022,03,24,11,05,8.10
2022,03,24,11,06,8.20
2022,03,24,11,07,8.20
2022,03,24,11,08,8.20
2022,03,24,11,09,8.20
2022,03,24,11,10,8.20
2022,03,24,11,11,8.20
2022,03,24,11,12,8.20
2022,03,24,11,13,8.20
2022,03,24,11,14,8.20
2022,03,24,11,15,8.20
2022,03,24,11,16,8.30
2022,03,24,11,17,8.30
2022,03,24,11,18,8.30
2022,03,24,11,19,8.30
2022,03,24,11,20,8.30
2022,03,24,11,21,8.30
2022,03,24,11,22,8.30
2022,03,24,11,23,8.30
2022,03,24,11,24,8.30
2022,03,24,11,25,8.30
2022,03,24,11,26,8.30
2022,03,24,11,27,8.30
2022,03,24,11,28,8.30
2022,03,24,11,29,8.30
2022,03,24,11,30,8.30
2022,03,24,11,31,8.30
2022,03,24,11,32,8.30
2022,03,24,11,33,8.30
2022,03,24,11,34,8.40
2022,03,24,11,35,8.40
2022,03,24,11,36,8.40
2022,03,24,11,37,8.40
2022,03,24,11,38,8.50
2022,03,24,11,39,8.50
2022,03,24,11,40,8.50
2022,03,24,11,41,8.50
2022,03,24,11,42,8.50
2022,03,24,11,43,8.50
2022,03,24,11,44,8.50
2022,03,24,11,45,8.50
2022,03,24,11,46,8.50
2022,03,24,11,47,8.50
2022,03,24,11,48,8.50
2022,03,24,11,49,8.50
2022,03,24,11,50,8.50
2022,03,24,11,51,8.50
2022,03,24,11,52,8.50
2022,03,24,11,53,8.50
2022,03,24,11,54,8.50
2022,03,24,11,55,8.50
2022,03,24,11,56,8.50
2022,03,24,11,57,8.50
2022,03,24,11,58,8.50
2022,03,24,11,59,8.50
2022,03,24,12,00,8.50
2022,03,24,12,01,8.50
2022,03,24,12,02,8.50
2022,03,24,12,03,8.50
2022,03,24,12,04,8.50
2022,03,24,12,05,8.50
2022,03,24,12,06,8.50
2022,03,24,12,07,8.50
2022,03,24,12,08,8.50
2022,03,24,12,09,8.50
2022,03,24,12,10,8.50
2022,03,24,12,11,8.50
2022,03,24,12,12,8.50
2022,03,24,12,13,8.50
2022,03,24,12,14,8.50
2022,03,24,12,15,8.50
2022,03,24,12,16,8.60
2022,03,24,12,17,8.60
2022,03,24,12,18,8.60
2022,03,24,12,19,8.70
2022,03,24,12,20,8.70
2022,03,24,12,21,8.70
2022,03,24,12,22,8.70
2022,03,24,12,23,8.70
2022,03,24,12,24,8.70
2022,03,24,12,25,8.70
2022,03,24,12,26,8.70
2022,03,24,12,27,8.70
2022,03,24,12,28,8.70
2022,03,24,12,29,8.80
2022,03,24,12,30,8.80
2022,03,24,12,31,8.80
2022,03,24,12,32,8.80
2022,03,24,12,33,8.80
2022,03,24,12,34,8.90
2022,03,24,12,35,8.90
2022,03,24,12,36,8.90
2022,03,24,12,37,8.90
2022,03,24,12,38,8.90
2022,03,24,12,39,9.00
2022,03,24,12,40,9.00
2022,03,24,12,41,9.00
2022,03,24,12,42,9.00
2022,03,24,12,43,9.10
2022,03,24,12,44,9.10
2022,03,24,12,45,9.20
2022,03,24,12,46,9.20
2022,03,24,12,47,9.20
2022,03,24,12,48,9.20
2022,03,24,12,49,9.20
2022,03,24,12,50,9.20
2022,03,24,12,51,9.20
2022,03,24,12,52,9.20
2022,03,24,12,53,9.30
2022,03,24,12,54,9.30
2022,03,24,12,55,9.40
2022,03,24,12,56,9.40
2022,03,24,12,57,9.50
2022,03,24,12,58,9.50
2022,03,24,12,59,9.60
2022,03,24,13,00,9.60
2022,03,24,13,01,9.70
2022,03,24,13,02,9.70
2022,03,24,13,03,9.70
2022,03,24,13,04,9.70
2022,03,24,13,05,9.70
2022,03,24,13,06,9.70
2022,03,24,13,07,9.70
2022,03,24,13,08,9.70
2022,03,24,13,09,9.70
2022,03,24,13,10,9.70
2022,03,24,13,11,9.70
2022,03,24,13,12,9.80
2022,03,24,13,13,9.80
2022,03,24,13,14,9.80
2022,03,24,13,15,9.90
2022,03,24,13,16,9.90
2022,03,24,13,17,9.90
2022,03,24,13,18,9.90
2022,03,24,13,19,9.90
2022,03,24,13,20,9.90
2022,03,24,13,21,9.90
2022,03,24,13,22,9.90
2022,03,24,13,23,10.00
2022,03,24,13,24,10.10
2022,03,24,13,25,10.10
2022,03,24,13,26,10.10
2022,03,24,13,27,10.10
2022,03,24,13,28,10.10
2022,03,24,13,29,10.10
2022,03,24,13,30,10.10
2022,03,24,13,31,10.20
2022,03,24,13,32,10.20
2022,03,24,13,33,10.30
2022,03,24,13,34,10.30
2022,03,24,13,35,10.30
2022,03,24,13,36,10.40
2022,03,24,13,37,10.40
2022,03,24,13,38,10.30
2022,03,24,13,39,10.20
2022,03,24,13,40,10.20
2022,03,24,13,41,10.20
2022,03,24,13,42,10.30
2022,03,24,13,43,10.30
2022,03,24,13,44,10.30
2022,03,24,13,45,10.30
2022,03,24,13,46,10.30
2022,03,24,13,47,10.30
2022,03,24,13,48,10.30
2022,03,24,13,49,10.30
2022,03,24,13,50,10.30
2022,03,24,13,51,10.40
2022,03,24,13,52,10.40
2022,03,24,13,53,10.40
2022,03,24,13,54,10.40
2022,03,24,13,55,10.40
2022,03,24,13,56,10.50
2022,03,24,13,57,10.60
2022,03,24,13,58,10.70
2022,03,24,13,59,10.80
2022,03,24,14,00,10.80
2022,03,24,14,01,10.80
2022,03,24,14,02,10.90
2022,03,24,14,03,10.90
2022,03,24,14,04,10.90
2022,03,24,14,05,10.90
2022,03,24,14,06,10.90
2022,03,24,14,07,10.80
2022,03,24,14,08,10.80
2022,03,24,14,09,10.70
2022,03,24,14,10,10.60
2022,03,24,14,11,10.60
2022,03,24,14,12,10.60
2022,03,24,14,13,10.60
2022,03,24,14,14,10.60
2022,03,24,14,15,10.60
2022,03,24,14,16,10.70
2022,03,24,14,17,10.70
2022,03,24,14,18,10.80
2022,03,24,14,19,10.80
2022,03,24,14,20,10.90
2022,03,24,14,21,10.90
2022,03,24,14,22,10.90
2022,03,24,14,23,10.90
2022,03,24,14,24,10.80
2022,03,24,14,25,10.80
2022,03,24,14,26,10.70
2022,03,24,14,27,10.70
2022,03,24,14,28,10.70
2022,03,24,14,29,10.70
2022,03,24,14,30,10.60
2022,03,24,14,31,10.60
2022,03,24,14,32,10.50
2022,03,24,14,33,10.40
2022,03,24,14,34,10.40
2022,03,24,14,35,10.40
2022,03,24,14,36,10.40
2022,03,24,14,37,10.40
2022,03,24,14,38,10.40
2022,03,24,14,39,10.50
2022,03,24,14,40,10.60
2022,03,24,14,41,10.60
2022,03,24,14,42,10.60
2022,03,24,14,43,10.40
2022,03,24,14,44,10.40
2022,03,24,14,45,10.40
2022,03,24,14,46,10.40
2022,03,24,14,47,10.30
2022,03,24,14,48,10.30
2022,03,24,14,49,10.30
2022,03,24,14,50,10.30
2022,03,24,14,51,10.30
2022,03,24,14,52,10.30
2022,03,24,14,53,10.20
2022,03,24,14,54,10.20
2022,03,24,14,55,10.20
2022,03,24,14,56,10.20
2022,03,24,14,57,10.20
2022,03,24,14,58,10.20
2022,03,24,14,59,10.10
2022,03,24,15,00,10.10
2022,03,24,15,01,10.10
2022,03,24,15,02,10.10
2022,03,24,15,03,10.10
2022,03,24,15,04,10.10
2022,03,24,15,05,10.10
2022,03,24,15,06,10.10
2022,03,24,15,07,10.10
2022,03,24,15,08,10.10
2022,03,24,15,09,10.20
2022,03,24,15,10,10.20
2022,03,24,15,11,10.20
2022,03,24,15,12,10.30
2022,03,24,15,13,10.40
2022,03,24,15,14,10.40
2022,03,24,15,15,10.40
2022,03,24,15,16,10.40
2022,03,24,15,17,10.40
2022,03,24,15,18,10.40
2022,03,24,15,19,10.40
2022,03,24,15,20,10.40
2022,03,24,15,21,10.40
2022,03,24,15,22,10.40
2022,03,24,15,23,10.50
2022,03,24,15,24,10.60
2022,03,24,15,25,10.60
2022,03,24,15,26,10.60
2022,03,24,15,27,10.50
2022,03,24,15,28,10.40
2022,03,24,15,29,10.40
2022,03,24,15,30,10.40
2022,03,24,15,31,10.40
2022,03,24,15,32,10.40
2022,03,24,15,33,10.40
2022,03,24,15,34,10.40
2022,03,24,15,35,10.40
2022,03,24,15,36,10.60
2022,03,24,15,37,10.60
2022,03,24,15,38,10.60
2022,03,24,15,39,10.60
2022,03,24,15,40,10.60
2022,03,24,15,41,10.60
2022,03,24,15,42,10.60
2022,03,24,15,43,10.60
2022,03,24,15,44,10.60
2022,03,24,15,45,10.60
2022,03,24,15,46,10.70
2022,03,24,15,47,10.70
2022,03,24,15,48,10.80
2022,03,24,15,49,10.80
2022,03,24,15,50,10.80
2022,03,24,15,51,10.90
2022,03,24,15,52,10.90
2022,03,24,15,53,10.90
2022,03,24,15,54,10.90
2022,03,24,15,55,10.90
2022,03,24,15,56,10.90
2022,03,24,15,57,10.90
2022,03,24,15,58,10.90
2022,03,24,15,59,10.90
2022,03,24,16,00,10.90
2022,03,24,16,01,10.90
2022,03,24,16,02,10.90
2022,03,24,16,03,10.90
2022,03,24,16,04,10.90
2022,03,24,16,05,10.90
2022,03,24,16,06,10.90
2022,03,24,16,07,11.00
2022,03,24,16,08,11.10
2022,03,24,16,09,11.10
2022,03,24,16,10,11.10
2022,03,24,16,11,11.10
2022,03,24,16,12,11.10
2022,03,24,16,13,11.10
2022,03,24,16,14,11.10
2022,03,24,16,15,11.20
2022,03,24,16,16,11.20
2022,03,24,16,17,11.20
2022,03,24,16,18,11.20
2022,03,24,16,19,11.30
2022,03,24,16,20,11.30
2022,03,24,16,21,11.30
2022,03,24,16,22,11.30
2022,03,24,16,23,11.30
2022,03,24,16,24,11.40
2022,03,24,16,25,11.40
2022,03,24,16,26,11.40
2022,03,24,16,27,11.40
2022,03,24,16,28,11.40
2022,03,24,16,29,11.40
2022,03,24,16,30,11.40
2022,03,24,16,31,11.60
2022,03,24,16,32,11.60
2022,03,24,16,33,11.40
2022,03,24,16,34,11.40
2022,03,24,16,35,11.40
2022,03,24,16,36,11.40
2022,03,24,16,37,11.40
2022,03,24,16,38,11.40
2022,03,24,16,39,11.40
2022,03,24,16,40,11.40
2022,03,24,16,41,11.40
2022,03,24,16,42,11.30
2022,03,24,16,43,11.30
2022,03,24,16,44,11.40
2022,03,24,16,45,11.40
2022,03,24,16,46,11.40
2022,03,24,16,47,11.40
2022,03,24,16,48,11.30
2022,03,24,16,49,11.30
2022,03,24,16,50,11.30
2022,03,24,16,51,11.30
2022,03,24,16,52,11.20
2022,03,24,16,53,11.20
2022,03,24,16,54,11.10
2022,03,24,16,55,11.10
2022,03,24,16,56,11.10
2022,03,24,16,57,11.10
2022,03,24,16,58,11.10
2022,03,24,16,59,11.10
2022,03,24,17,00,11.10
2022,03,24,17,01,11.10
2022,03,24,17,02,11.20
2022,03,24,17,03,11.20
2022,03,24,17,04,11.20
2022,03,24,17,05,11.20
2022,03,24,17,06,11.30
2022,03,24,17,07,11.40
2022,03,24,17,08,11.40
2022,03,24,17,09,11.40
2022,03,24,17,10,11.40
2022,03,24,17,11,11.50
2022,03,24,17,12,11.60
2022,03,24,17,13,11.60
2022,03,24,17,14,11.60
2022,03,24,17,15,11.60
2022,03,24,17,16,11.60
2022,03,24,17,17,11.60
2022,03,24,17,18,11.60
2022,03,24,17,19,11.60
2022,03,24,17,20,11.60
2022,03,24,17,21,11.60
2022,03,24,17,22,11.60
2022,03,24,17,23,11.60
2022,03,24,17,24,11.60
2022,03,24,17,25,11.60
2022,03,24,17,26,11.60
2022,03,24,17,27,11.60
2022,03,24,17,28,11.60
2022,03,24,17,29,11.60
2022,03,24,17,30,11.50
2022,03,24,17,31,11.40
2022,03,24,17,32,11.40
2022,03,24,17,33,11.40
2022,03,24,17,34,11.40
2022,03,24,17,35,11.40
2022,03,24,17,36,11.40
2022,03,24,17,37,11.40
2022,03,24,17,38,11.40
2022,03,24,17,39,11.40
2022,03,24,17,40,11.50
2022,03,24,17,41,11.60
2022,03,24,17,42,11.60
2022,03,24,17,43,11.60
2022,03,24,17,44,11.60
2022,03,24,17,45,11.60
2022,03,24,17,46,11.60
2022,03,24,17,47,11.60
2022,03,24,17,48,11.60
2022,03,24,17,49,11.60
2022,03,24,17,50,11.60
2022,03,24,17,51,11.60
2022,03,24,17,52,11.60
2022,03,24,17,53,11.60
2022,03,24,17,54,11.60